Vorticity
15 13 13 11 8 8 8 8 10 12 13 13 13 12 12 11 10 11 11 10 9 11 11 10 11 11 10 10 10 8 7 8 8 8 8 8 7 7 8 8 9 9 9 9 8 7 7 7 6 6 5 6 6 6 6 6 7 7 7 8 8 8 8 9 9 9 9 9 10 10 9 8 8 7 7 7 7 6 6 5 4 3 2 2 1
15 15 16 15 15 14 12 10 8 7 8 9 10 11 12 12 12 13 12 11 10 10 10 10 10 10 9 9 8 8 8 9 9 9 9 8 9 10 10 10 10 10 9 9 8 6 6 6 5 5 5 5 5 6 6 7 7 7 8 8 8 8 8 8 8 8 8 8 8 8 7 7 7 6 6 6 6 5 5 4 4 3 2 2 1
9 9 11 13 15 16 17 19 17 14 10 8 8 8 9 9 10 10 11 11 11 10 10 9 9 8 7 7 8 8 9 10 10 9 10 11 12 12 12 12 10 9 8 7 6 5 5 5 5 4 5 5 6 7 8 8 8 9 9 9 9 9 9 9 9 9 9 9 10 10 11 10 10 10 10 10 9 10 9 9 9 8 7 7 6
6 7 8 9 10 11 12 12 15 17 18 18 14 10 8 7 6 5 6 7 8 10 11 11 11 10 11 12 13 12 12 13 12 12 13 13 13 14 14 12 9 6 4 4 4 4 4 6 7 8 9 10 10 11 10 10 11 11 11 11 11 11 11 11 12 13 13 13 14 14 15 15 15 15 15 15 16 16 16 16 17 17 16 16 16
3 6 9 10 9 9 7 6 8 10 15 19 18 16 13 11 9 8 8 9 9 9 10 10 11 11 12 13 13 13 13 12 13 13 13 12 12 11 9 7 6 4 4 5 6 8 10 12 12 12 13 12 11 11 11 12 13 13 13 13 14 14 14 14 14 14 14 14 14 14 14 15 16 16 16 16 17 17 18 18 18 19 19 19 19
-0 4 9 11 9 7 6 6 6 7 11 12 11 13 16 17 16 15 14 13 12 13 12 10 10 10 10 11 12 12 12 12 14 13 12 11 10 8 7 8 8 8 9 12 13 15 16 15 14 13 12 11 11 12 13 13 13 12 12 12 12 12 12 11 10 10 9 9 10 9 9 9 9 9 10 10 9 10 11 11 11 12 12 12 12
-3 0 6 7 5 3 3 5 7 8 8 5 4 8 12 15 15 14 13 12 11 11 11 11 11 12 11 12 13 12 11 11 12 11 9 10 8 8 10 10 9 10 11 12 13 14 13 12 12 11 10 10 10 10 9 9 8 8 7 7 7 7 7 7 6 6 6 5 6 6 6 6 6 6 6 6 5 4 4 5 6 6 6 6 6
-3 -0 5 7 4 0 1 4 6 7 5 3 5 6 5 6 8 10 12 14 14 12 10 11 12 13 13 13 12 10 10 10 9 7 6 6 6 8 8 8 8 9 9 10 9 8 8 7 7 7 7 7 7 7 6 6 7 7 6 6 6 6 6 6 6 6 6 6 6 6 7 7 8 8 7 8 8 6 6 6 7 7 7 7 6
2 2 5 6 4 1 1 3 5 6 4 3 3 2 3 4 5 7 9 11 13 13 12 11 10 9 8 7 7 7 8 8 7 7 7 7 8 8 7 7 8 8 8 8 8 7 6 6 6 5 6 6 6 6 6 7 7 6 6 6 6 6 6 6 6 5 6 6 6 6 6 7 7 8 8 8 8 8 7 7 8 8 8 8 8
5 3 1 3 5 3 0 2 6 3 -1 0 2 3 4 5 4 5 5 6 8 9 10 11 11 10 8 6 2 0 2 4 5 5 6 6 6 6 7 7 7 6 7 7 6 6 6 5 5 5 5 5 5 5 5 5 4 4 4 5 5 5 5 5 5 5 5 5 6 6 6 6 6 6 7 7 8 8 8 8 8 8 7 8 8
4 2 -1 1 5 5 3 3 6 3 2 4 3 1 2 5 7 6 5 5 5 6 7 9 10 10 11 10 5 1 2 4 5 5 6 5 5 6 6 5 4 5 5 6 6 6 5 5 6 5 5 5 5 5 5 4 4 4 5 5 5 5 5 5 5 5 6 6 6 6 6 6 6 6 6 7 7 7 8 8 9 9 9 9 8
7 5 2 5 10 9 7 4 2 3 7 8 4 1 4 7 8 6 5 4 4 5 5 6 7 8 9 9 8 7 7 7 7 7 6 5 5 5 3 3 4 4 5 6 7 7 6 6 5 5 5 5 5 4 3 4 5 5 5 5 5 5 5 6 6 6 6 6 6 7 7 7 7 7 7 7 7 7 8 8 9 10 9 10 10
6 5 6 11 10 7 5 2 2 4 7 9 7 5 5 6 8 9 8 4 1 1 3 4 4 5 6 6 7 7 6 7 7 7 7 6 5 5 4 4 4 5 5 6 8 7 4 3 3 4 5 4 4 4 4 5 5 5 5 5 5 5 6 6 6 6 6 6 6 6 6 6 6 6 6 6 6 7 8 8 9 9 9 10 11
10 10 9 5 0 1 4 3 4 7 7 8 7 2 -0 2 8 12 10 5 2 1 1 3 4 3 3 3 3 4 4 4 5 7 7 7 6 5 5 5 4 4 4 5 7 5 3 3 3 3 4 5 4 5 5 5 4 4 4 5 5 5 5 5 5 5 4 4 4 4 3 3 3 3 3 3 4 5 6 7 8 10 10 10 10
12 6 4 4 5 7 9 9 8 9 7 3 1 -0 -0 4 11 17 14 6 4 5 2 3 6 6 4 3 3 3 3 3 3 4 5 7 7 7 6 5 5 5 5 5 6 5 4 3 3 3 4 4 5 5 4 4 4 4 4 5 5 4 4 4 4 4 4 3 3 3 2 2 2 2 2 2 3 3 4 5 7 8 9 10 10
14 16 20 21 21 18 13 11 8 3 1 -1 1 4 6 6 9 18 21 11 3 4 5 4 4 3 4 5 5 4 3 4 4 4 5 5 6 6 6 6 5 5 5 4 5 5 5 4 3 3 4 4 4 4 4 4 4 4 5 5 4 4 4 4 4 4 4 4 4 3 3 3 3 3 3 3 3 3 3 5 6 7 8 9 9
31 32 32 23 17 13 5 1 -0 -1 1 3 6 8 8 8 9 16 24 19 7 2 4 7 8 6 6 6 5 5 4 4 5 5 5 5 4 4 5 5 5 5 5 4 4 5 5 4 4 3 4 4 4 4 4 4 4 4 5 5 5 4 4 5 5 5 5 5 5 4 4 4 4 4 4 4 4 3 3 4 6 7 8 9 9
20 8 9 4 -8 -11 -12 -8 -1 3 4 5 6 6 6 6 8 12 18 18 13 8 6 8 7 4 3 3 4 5 5 4 4 4 4 5 4 5 5 5 5 4 4 4 3 4 4 4 4 3 4 4 4 4 4 4 3 4 4 5 4 4 3 4 6 6 5 5 5 5 5 5 5 5 4 4 4 4 4 4 5 7 8 9 10
-3 -11 0 1 -10 -9 -3 2 7 8 6 4 3 3 5 4 6 11 15 14 10 7 6 5 4 3 2 1 1 3 5 5 4 4 4 4 5 6 6 6 6 5 5 4 4 3 4 4 4 4 4 5 5 5 4 4 4 4 4 5 4 4 3 3 4 5 5 5 5 6 5 5 5 5 5 5 5 5 4 5 6 7 8 10 10
0 -3 4 7 5 7 10 12 15 13 11 10 7 4 4 4 4 9 16 16 9 4 2 1 2 3 3 2 3 4 5 5 5 4 4 3 4 5 6 6 6 5 4 4 4 4 4 4 3 3 3 3 4 4 3 4 4 4 4 5 4 4 3 3 4 5 5 6 6 6 6 6 5 5 5 5 5 5 5 5 6 7 9 10 10
7 5 9 16 21 20 16 16 18 17 13 11 10 8 6 6 4 4 8 8 2 -4 -4 -1 4 7 7 5 2 2 5 7 7 6 5 5 4 5 6 7 6 5 4 4 3 4 4 4 3 3 2 3 3 3 4 5 6 6 6 5 5 4 4 3 4 5 6 6 6 7 6 6 6 6 6 6 6 6 5 6 6 7 9 11 11
11 9 7 10 16 22 23 20 19 18 14 11 10 9 7 6 5 3 2 1 -2 -4 -3 3 9 12 12 9 4 2 1 1 5 9 8 5 4 4 6 8 8 7 6 5 4 4 5 5 4 4 4 3 3 3 4 5 6 6 6 5 5 5 5 4 5 5 6 6 7 7 7 7 7 6 7 7 7 6 6 6 7 8 9 10 11
17 16 14 10 10 15 20 21 21 20 15 10 8 8 7 7 6 6 6 4 1 -2 -1 4 9 11 13 12 9 3 -5 -8 -0 11 15 12 7 5 4 7 10 11 9 7 6 6 5 6 6 6 6 5 4 4 4 4 4 5 6 5 4 5 6 6 6 6 7 7 8 8 7 8 8 8 8 8 8 8 8 7 7 7 9 11 12
14 15 17 17 15 14 15 16 17 17 15 12 11 9 6 5 4 5 6 4 1 1 5 9 10 9 8 5 1 -3 -3 2 9 13 14 14 12 9 6 4 7 11 12 11 9 8 6 5 6 6 7 8 7 6 6 5 4 5 6 6 6 7 8 8 9 9 9 9 9 9 9 9 10 11 11 10 9 8 8 8 8 9 11 12 12
9 7 6 7 9 11 13 14 15 15 13 10 10 11 10 8 6 5 3 -1 -3 -0 4 6 6 5 1 -1 0 5 9 15 17 14 11 13 14 13 10 7 5 8 12 13 11 10 8 7 7 7 8 7 7 7 6 3 3 5 8 9 10 10 9 9 10 9 9 10 10 11 12 12 12 13 12 11 10 9 9 9 10 12 13 13 12
17 13 9 5 2 0 2 6 11 15 15 12 10 11 10 7 5 5 4 4 4 4 5 5 2 -4 -6 -1 9 16 18 17 18 19 18 18 19 18 15 11 7 6 9 13 13 12 11 10 8 8 8 8 9 8 6 4 4 8 11 12 11 11 10 9 9 8 9 10 11 12 13 13 14 14 13 11 10 10 11 11 12 12 12 12 11
25 24 22 17 12 7 3 1 1 3 7 8 10 13 16 13 7 4 4 5 6 5 1 -6 -13 -11 2 18 28 30 30 28 27 27 27 26 26 25 23 17 12 8 8 10 13 13 13 12 12 13 14 14 13 11 9 8 9 11 12 11 10 9 9 8 8 9 9 9 10 11 12 13 15 15 13 12 11 12 12 12 12 12 11 11 10
26 28 30 29 27 25 20 15 12 10 7 5 5 9 16 20 19 16 15 15 16 14 9 6 11 23 34 37 33 29 26 25 22 21 21 22 23 25 25 20 14 11 9 11 14 16 17 17 17 17 16 14 12 10 9 10 11 12 12 12 11 9 9 8 9 9 10 10 11 10 11 14 15 14 12 11 11 11 12 12 12 10 9 9 9
21 23 25 28 30 32 30 25 21 20 19 17 14 12 12 15 18 20 20 21 24 26 27 29 33 33 25 16 13 11 10 11 13 12 12 13 15 18 20 18 15 12 12 13 15 16 15 14 12 10 8 7 6 7 9 11 13 13 12 11 10 10 10 9 9 10 11 11 9 8 11 14 13 12 11 10 11 11 11 11 10 7 7 7 8
17 18 19 21 23 26 29 28 25 22 19 18 17 14 13 13 14 15 16 17 17 16 16 17 16 14 10 8 9 9 9 10 10 11 11 12 13 14 15 16 14 12 9 8 7 6 4 3 3 4 5 6 8 9 10 12 12 11 10 10 10 10 9 9 9 9 9 8 8 10 12 13 12 11 10 10 10 10 11 11 8 6 6 7 8
14 16 17 19 20 21 24 27 28 25 21 16 11 7 8 10 10 8 8 11 15 15 13 12 12 12 12 11 10 9 9 11 11 11 11 10 11 12 12 13 13 11 10 8 7 6 6 7 8 10 10 9 8 8 9 10 10 10 10 10 9 8 8 9 8 8 8 8 10 12 12 11 10 11 10 9 9 11 12 10 7 6 8 8 9
12 13 13 15 18 20 21 23 26 27 28 26 19 10 4 4 7 9 8 7 8 10 13 14 13 10 9 10 11 11 10 9 10 12 13 13 14 15 15 16 16 16 15 15 14 14 14 14 12 10 7 5 6 8 11 12 12 12 10 9 8 7 6 7 7 7 8 9 11 12 11 10 10 10 10 10 11 13 11 8 7 8 10 10 10
11 12 14 14 14 16 18 18 20 22 26 31 34 32 23 11 3 3 6 7 5 6 10 14 14 11 10 9 10 10 11 12 12 13 13 13 14 14 15 15 14 14 13 13 13 13 12 12 11 10 10 12 14 15 15 13 13 12 11 9 7 6 5 5 6 7 9 10 11 11 10 10 11 10 11 12 13 12 9 8 10 12 11 11 9
10 10 12 12 14 17 19 20 18 16 16 19 24 33 39 37 27 14 4 -3 -6 -4 3 10 12 9 8 9 10 10 9 10 11 11 12 12 11 10 9 8 8 8 8 8 9 10 11 13 14 16 17 17 15 12 9 10 11 12 11 10 8 7 7 7 8 9 10 10 10 10 10 11 11 12 13 13 11 10 10 12 13 12 10 7 5
9 9 9 10 12 15 18 22 21 19 17 14 14 16 21 29 36 37 32 23 12 4 4 8 11 11 8 6 7 7 7 6 5 5 4 5 6 7 8 9 10 10 9 9 10 11 12 13 13 13 11 8 6 7 8 11 12 12 11 10 9 9 9 9 10 10 10 11 11 12 13 13 13 13 12 10 9 10 13 13 11 8 5 4 3
9 8 8 9 11 13 16 18 19 19 18 18 18 19 17 17 20 24 31 36 37 32 22 12 7 9 10 8 6 4 2 0 0 0 -0 -0 1 2 4 5 6 7 8 9 10 10 9 9 7 6 6 6 8 11 12 12 13 13 11 10 11 11 11 12 11 11 12 13 14 14 14 13 11 10 10 10 12 14 14 11 7 4 4 4 5
10 10 10 9 10 12 14 16 18 19 19 18 18 19 21 22 22 20 18 21 28 36 38 32 21 12 9 8 7 6 3 -1 -3 -4 -4 -4 -3 -2 -1 -1 1 3 5 6 8 8 8 8 9 10 11 13 14 16 16 16 16 15 13 13 13 12 12 11 12 13 15 15 16 15 13 11 10 10 12 13 13 12 10 8 7 7 6 5 6
11 11 11 10 10 12 14 16 17 16 16 19 20 20 20 22 23 23 21 18 18 21 28 36 39 35 28 19 12 7 4 3 1 -1 -4 -5 -5 -4 -3 -2 0 1 2 3 4 5 6 8 10 13 14 16 16 16 16 16 15 13 11 10 9 9 10 11 12 14 16 16 15 13 11 10 11 13 13 11 8 8 7 8 9 8 7 6 9
12 11 11 10 10 12 14 13 12 13 16 19 22 23 24 25 23 22 22 21 20 19 18 21 27 34 41 41 37 29 19 11 5 1 -1 -3 -5 -5 -4 -2 -0 1 1 2 2 3 4 6 6 6 7 10 11 11 10 10 9 8 7 7 8 9 10 11 12 13 13 13 12 11 11 13 13 11 8 5 5 6 6 6 8 8 7 10 13
11 11 11 11 11 13 13 10 10 15 20 26 29 30 30 28 23 21 20 19 18 18 18 18 18 20 25 32 40 45 45 40 31 21 13 7 3 2 2 3 3 3 3 4 4 5 6 7 9 9 8 8 8 8 9 9 9 9 9 10 11 12 12 12 13 13 13 13 12 11 11 11 9 7 5 5 6 5 4 6 9 10 11 13 13
11 12 11 10 12 13 10 9 16 22 25 29 32 32 30 28 23 20 18 15 13 13 14 17 21 24 26 28 30 34 41 47 49 47 41 34 26 21 17 15 14 12 12 11 10 11 12 14 16 17 15 12 10 10 10 9 9 10 11 11 12 13 13 13 14 14 13 12 8 6 6 6 6 6 7 7 7 6 7 10 11 11 12 12 12
12 13 11 11 14 12 7 11 20 25 27 30 31 28 26 22 18 14 12 10 12 16 19 22 25 28 30 32 30 29 29 33 38 43 46 45 43 39 34 30 26 23 20 18 17 16 16 16 16 16 14 12 11 10 10 10 9 8 7 7 9 9 8 7 8 8 7 5 3 2 4 7 8 9 9 9 9 10 10 11 11 11 12 13 14
13 12 10 13 14 9 8 18 25 25 26 28 26 22 17 12 10 11 16 21 23 25 27 29 30 30 29 28 26 24 24 27 30 34 37 41 43 43 41 39 36 32 26 22 20 17 15 13 12 12 12 11 10 10 11 12 12 12 9 7 6 5 4 4 4 4 5 5 6 8 11 12 12 11 10 11 11 10 10 11 12 13 15 16 16
13 11 11 14 12 6 11 24 28 26 24 20 15 12 12 14 18 22 25 26 26 27 29 29 28 26 25 23 22 21 22 23 25 27 31 34 37 40 41 40 38 34 28 22 18 15 13 11 10 9 10 9 9 9 10 11 13 15 14 12 9 8 6 5 4 4 5 7 8 10 11 9 8 9 11 10 9 8 10 12 15 16 18 18 15
13 10 12 14 9 5 18 30 26 19 16 14 14 18 22 24 25 24 21 21 24 27 28 25 23 21 19 18 19 19 20 21 21 22 23 25 28 32 35 36 36 33 29 24 20 16 14 11 9 9 9 10 10 10 10 10 10 11 11 12 12 12 11 10 9 8 8 8 8 8 6 5 7 10 10 8 8 10 13 16 17 17 16 14 12
12 10 14 14 5 8 24 29 19 14 17 19 22 23 22 21 20 18 17 20 22 22 19 15 14 13 14 14 14 15 17 17 18 18 18 19 22 25 28 31 32 32 30 27 24 20 18 15 13 12 11 11 10 8 8 7 7 6 7 7 7 8 8 9 11 12 13 15 16 15 13 12 13 12 9 8 11 15 18 19 17 15 13 11 11
11 12 16 11 4 13 27 24 16 18 23 22 20 18 16 18 19 18 16 16 15 14 12 11 12 11 11 12 12 14 16 17 16 15 16 16 18 21 23 26 28 28 29 29 27 26 23 20 17 15 13 11 10 10 9 9 9 8 8 7 7 8 8 9 12 14 15 16 16 16 15 13 12 10 10 11 15 18 17 15 13 12 12 11 11
11 14 17 8 4 17 27 22 20 24 21 16 16 16 17 18 16 14 14 14 14 14 13 11 11 11 11 11 11 13 16 19 19 17 16 16 17 17 18 20 23 26 27 28 28 27 25 23 21 18 17 15 15 15 15 14 14 12 12 13 13 14 14 14 14 14 15 15 15 15 14 12 11 12 13 15 17 17 15 14 13 13 13 11 10
11 15 15 6 6 21 28 23 22 21 15 13 15 15 15 16 14 14 14 15 15 16 16 15 13 11 10 10 10 11 14 18 21 19 15 16 18 18 18 17 17 19 21 24 26 26 26 26 25 24 24 23 22 20 18 17 18 18 19 19 19 19 18 18 18 19 19 19 18 17 15 13 13 15 16 17 16 15 13 13 13 12 12 11 11
14 17 14 4 8 25 29 22 19 16 11 12 14 13 14 15 15 15 16 16 17 17 17 17 15 13 12 11 11 12 12 14 18 19 16 14 14 17 19 19 17 16 16 16 18 19 21 23 23 24 25 24 23 23 22 23 24 23 23 22 22 22 22 22 22 20 18 17 15 14 14 16 17 18 17 15 14 12 11 11 11 10 10 10 10
14 17 12 4 12 28 27 18 15 13 9 10 12 12 14 15 14 14 14 15 17 17 17 18 17 16 15 14 12 13 13 12 13 15 16 15 14 13 15 16 17 18 17 16 16 16 16 17 18 18 19 20 20 20 21 22 23 22 21 21 20 20 19 17 15 13 12 13 15 17 18 19 18 17 15 12 11 11 10 10 10 10 9 10 9
Height
5668 5667 5666 5665 5664 5663 5662 5662 5661 5660 5660 5659 5658 5658 5658 5657 5657 5657 5656 5656 5656 5655 5655 5655 5655 5655 5656 5656 5656 5655 5654 5655 5655 5655 5656 5656 5656 5657 5658 5659 5659 5660 5660 5660 5659 5659 5659 5659 5660 5660 5660 5660 5660 5660 5661 5661 5661 5662 5662 5662 5662 5662 5663 5663 5663 5663 5663 5662 5662 5664 5665 5665 5666 5666 5666 5666 5667 5668 5669 5670 5671 5672 5673 5674 5675
5665 5664 5662 5661 5660 5659 5658 5658 5657 5656 5655 5654 5653 5653 5652 5652 5652 5652 5651 5651 5651 5650 5650 5650 5650 5650 5650 5650 5650 5649 5649 5649 5649 5650 5650 5650 5651 5652 5653 5653 5654 5654 5654 5653 5653 5652 5652 5653 5653 5653 5653 5654 5654 5655 5655 5655 5655 5655 5655 5655 5656 5656 5656 5656 5656 5656 5656 5656 5656 5657 5658 5658 5659 5660 5659 5660 5660 5661 5662 5663 5664 5665 5665 5666 5667
5662 5660 5659 5658 5657 5655 5655 5654 5653 5652 5651 5650 5649 5649 5648 5647 5647 5646 5645 5645 5645 5645 5644 5644 5644 5644 5644 5644 5644 5643 5644 5644 5644 5644 5645 5645 5646 5647 5647 5648 5648 5648 5647 5646 5646 5645 5645 5646 5646 5647 5647 5648 5648 5648 5648 5648 5648 5649 5649 5649 5649 5650 5650 5650 5650 5650 5650 5649 5650 5650 5651 5651 5652 5652 5652 5653 5653 5654 5655 5655 5656 5657 5658 5659 5659
5658 5656 5655 5654 5653 5652 5651 5650 5649 5648 5647 5646 5645 5644 5644 5643 5642 5641 5640 5640 5640 5640 5640 5640 5639 5639 5639 5639 5639 5639 5639 5639 5639 5640 5640 5641 5641 5641 5641 5640 5640 5640 5639 5639 5639 5639 5640 5641 5641 5642 5642 5642 5642 5642 5642 5642 5642 5642 5642 5642 5643 5643 5643 5644 5643 5644 5643 5643 5644 5644 5644 5644 5645 5645 5645 5646 5646 5647 5647 5648 5649 5649 5650 5651 5652
5653 5652 5650 5649 5648 5647 5646 5645 5644 5643 5642 5641 5640 5639 5638 5638 5637 5636 5636 5636 5636 5635 5635 5634 5633 5634 5634 5634 5634 5634 5634 5634 5634 5635 5634 5634 5634 5634 5634 5633 5632 5632 5632 5633 5633 5634 5635 5635 5636 5636 5636 5635 5635 5635 5635 5636 5636 5636 5636 5636 5636 5636 5637 5637 5637 5637 5637 5637 5637 5637 5637 5638 5638 5638 5639 5639 5640 5640 5640 5641 5641 5642 5643 5644 5644
5648 5646 5645 5644 5643 5642 5641 5640 5639 5638 5637 5635 5634 5633 5633 5633 5632 5631 5631 5631 5630 5629 5628 5628 5628 5628 5628 5628 5628 5628 5628 5629 5629 5629 5628 5628 5627 5627 5626 5626 5626 5626 5626 5628 5628 5629 5629 5629 5629 5629 5629 5628 5629 5629 5629 5629 5629 5629 5630 5630 5630 5630 5631 5631 5631 5631 5631 5631 5631 5631 5631 5631 5632 5632 5632 5633 5633 5634 5634 5634 5634 5635 5636 5636 5637
5642 5641 5639 5638 5637 5636 5635 5634 5633 5633 5632 5630 5629 5629 5628 5627 5626 5626 5625 5625 5624 5623 5623 5622 5623 5623 5623 5623 5623 5623 5623 5624 5623 5622 5622 5622 5621 5621 5621 5621 5621 5621 5621 5622 5623 5623 5623 5623 5622 5622 5622 5622 5622 5623 5623 5623 5623 5623 5623 5623 5623 5624 5624 5624 5624 5625 5625 5625 5625 5625 5625 5625 5625 5625 5626 5626 5627 5627 5627 5627 5627 5628 5629 5629 5630
5636 5635 5634 5632 5631 5630 5629 5628 5627 5627 5626 5625 5625 5624 5623 5622 5621 5620 5620 5619 5619 5618 5617 5617 5617 5617 5617 5617 5617 5618 5618 5618 5617 5616 5616 5616 5615 5616 5616 5615 5615 5616 5616 5616 5617 5617 5617 5616 5616 5615 5615 5616 5616 5616 5616 5616 5616 5617 5617 5617 5617 5617 5617 5618 5618 5618 5618 5618 5619 5619 5618 5618 5618 5618 5618 5619 5619 5620 5620 5620 5620 5621 5621 5622 5622
5631 5630 5629 5628 5626 5625 5623 5622 5622 5621 5620 5620 5619 5618 5617 5617 5616 5615 5615 5614 5613 5612 5611 5611 5611 5611 5611 5611 5612 5612 5612 5612 5611 5610 5610 5610 5610 5610 5610 5610 5610 5610 5610 5610 5610 5610 5610 5610 5609 5609 5609 5609 5610 5609 5609 5610 5610 5610 5610 5610 5611 5611 5611 5611 5611 5611 5611 5611 5612 5612 5612 5611 5611 5611 5611 5611 5611 5612 5612 5612 5612 5613 5614 5614 5615
5625 5624 5624 5623 5621 5620 5619 5617 5616 5614 5614 5613 5613 5612 5612 5611 5610 5610 5609 5608 5607 5606 5606 5605 5605 5605 5605 5605 5606 5606 5606 5605 5605 5604 5604 5604 5604 5604 5604 5604 5603 5604 5604 5604 5604 5604 5604 5603 5603 5603 5603 5603 5603 5603 5603 5603 5603 5603 5604 5604 5604 5604 5604 5604 5604 5604 5604 5604 5604 5604 5604 5604 5604 5604 5604 5604 5604 5604 5604 5604 5605 5605 5606 5607 5607
5619 5618 5618 5617 5616 5614 5613 5612 5610 5608 5607 5606 5606 5605 5604 5604 5604 5603 5603 5602 5601 5600 5600 5599 5599 5598 5599 5599 5599 5599 5599 5598 5598 5598 5598 5597 5598 5597 5597 5596 5596 5596 5597 5597 5597 5596 5596 5596 5597 5596 5596 5596 5596 5596 5595 5595 5596 5596 5597 5597 5597 5596 5596 5597 5597 5597 5597 5597 5597 5597 5597 5597 5597 5597 5596 5596 5597 5597 5596 5596 5596 5597 5598 5598 5599
5613 5612 5611 5610 5609 5608 5606 5605 5603 5602 5600 5599 5598 5598 5598 5597 5596 5596 5596 5595 5594 5594 5593 5593 5592 5592 5592 5591 5592 5591 5591 5591 5591 5591 5591 5590 5590 5590 5589 5589 5589 5589 5589 5590 5590 5589 5589 5589 5589 5589 5589 5589 5589 5588 5588 5588 5589 5589 5589 5589 5589 5589 5589 5589 5590 5589 5589 5590 5590 5589 5590 5590 5590 5589 5589 5589 5589 5589 5589 5589 5588 5589 5590 5589 5590
5607 5606 5605 5603 5602 5601 5600 5598 5596 5594 5593 5592 5591 5591 5591 5591 5590 5590 5588 5587 5586 5586 5586 5585 5585 5585 5584 5584 5584 5584 5583 5583 5584 5584 5583 5583 5583 5582 5582 5582 5582 5582 5582 5583 5583 5582 5580 5580 5580 5580 5581 5581 5580 5580 5580 5580 5581 5581 5581 5582 5582 5582 5582 5582 5582 5582 5582 5582 5582 5582 5582 5582 5582 5582 5582 5582 5582 5581 5581 5581 5580 5581 5581 5581 5581
5600 5599 5597 5596 5594 5593 5592 5590 5588 5587 5585 5585 5584 5583 5584 5584 5583 5583 5581 5579 5578 5579 5578 5578 5578 5577 5576 5576 5576 5575 5575 5575 5576 5576 5576 5575 5575 5574 5574 5574 5574 5574 5574 5575 5574 5573 5572 5572 5572 5572 5572 5572 5572 5572 5572 5572 5573 5573 5573 5574 5574 5574 5574 5574 5574 5574 5574 5574 5574 5574 5574 5574 5574 5574 5574 5574 5574 5574 5574 5573 5572 5573 5573 5572 5572
5592 5591 5590 5588 5587 5585 5583 5582 5580 5579 5577 5577 5576 5576 5576 5575 5575 5575 5574 5571 5571 5571 5570 5570 5570 5569 5568 5568 5567 5567 5567 5567 5567 5568 5567 5567 5567 5567 5567 5566 5566 5566 5566 5566 5565 5565 5565 5564 5563 5564 5564 5563 5564 5564 5564 5564 5564 5564 5565 5565 5565 5565 5565 5566 5566 5566 5565 5565 5565 5566 5566 5566 5566 5566 5566 5566 5566 5566 5565 5565 5564 5564 5564 5564 5564
5582 5582 5581 5580 5578 5577 5575 5573 5572 5570 5569 5568 5568 5567 5567 5566 5566 5567 5565 5563 5563 5563 5562 5562 5561 5560 5560 5560 5559 5559 5558 5559 5559 5559 5559 5558 5558 5558 5558 5558 5557 5557 5557 5557 5557 5557 5557 5556 5555 5555 5555 5555 5555 5555 5555 5556 5556 5556 5556 5556 5556 5556 5557 5557 5557 5557 5557 5557 5557 5557 5557 5557 5557 5557 5557 5557 5557 5557 5557 5556 5556 5556 5555 5556 5555
5572 5572 5571 5570 5569 5568 5566 5564 5562 5561 5560 5559 5558 5558 5558 5557 5557 5557 5556 5555 5554 5554 5553 5553 5552 5552 5551 5551 5550 5550 5550 5550 5550 5550 5549 5549 5549 5549 5549 5548 5548 5548 5548 5547 5548 5548 5548 5547 5547 5547 5547 5547 5547 5547 5547 5547 5547 5547 5548 5548 5548 5548 5548 5548 5549 5549 5548 5548 5548 5548 5548 5548 5548 5548 5548 5549 5549 5549 5548 5548 5548 5547 5547 5547 5546
5561 5562 5561 5560 5559 5558 5556 5555 5553 5552 5550 5549 5548 5548 5547 5547 5547 5547 5547 5546 5545 5544 5544 5543 5542 5542 5541 5541 5541 5540 5540 5541 5541 5540 5539 5539 5540 5540 5539 5539 5539 5538 5538 5538 5538 5538 5538 5538 5538 5538 5538 5538 5538 5538 5538 5538 5538 5538 5539 5539 5539 5539 5539 5540 5540 5540 5540 5540 5539 5539 5539 5539 5539 5539 5539 5540 5540 5540 5539 5539 5539 5538 5538 5538 5538
5550 5550 5551 5550 5549 5547 5546 5545 5544 5543 5541 5540 5538 5537 5537 5536 5536 5537 5536 5536 5535 5534 5533 5532 5531 5531 5531 5531 5530 5530 5530 5530 5530 5530 5530 5530 5531 5530 5530 5530 5529 5528 5528 5528 5528 5528 5529 5529 5528 5528 5529 5529 5529 5529 5529 5529 5529 5529 5529 5530 5530 5530 5530 5531 5531 5531 5531 5531 5530 5530 5530 5530 5530 5530 5530 5531 5531 5530 5530 5530 5529 5529 5529 5529 5528
5539 5538 5538 5539 5538 5536 5535 5534 5533 5532 5531 5530 5528 5527 5526 5525 5525 5525 5525 5525 5524 5522 5522 5521 5521 5521 5521 5521 5520 5519 5519 5518 5519 5519 5519 5521 5521 5520 5520 5520 5519 5518 5518 5518 5518 5518 5518 5518 5518 5518 5519 5519 5520 5520 5519 5519 5520 5520 5520 5520 5520 5520 5521 5521 5521 5522 5522 5522 5521 5521 5521 5521 5520 5521 5521 5521 5521 5521 5521 5520 5520 5520 5519 5520 5519
5528 5525 5524 5524 5524 5524 5523 5522 5521 5521 5519 5518 5517 5516 5514 5513 5513 5513 5512 5512 5511 5510 5510 5511 5511 5511 5511 5510 5509 5508 5508 5508 5508 5508 5508 5510 5510 5510 5510 5509 5508 5508 5508 5507 5508 5508 5508 5508 5508 5508 5509 5509 5509 5509 5510 5510 5510 5511 5511 5511 5511 5511 5511 5511 5511 5512 5512 5512 5512 5512 5511 5511 5511 5511 5511 5512 5512 5512 5511 5511 5510 5510 5510 5510 5510
5515 5513 5511 5511 5510 5511 5511 5510 5510 5509 5508 5507 5506 5504 5503 5501 5500 5500 5499 5499 5498 5498 5498 5498 5499 5499 5499 5498 5498 5498 5497 5497 5497 5497 5497 5498 5498 5498 5498 5498 5498 5498 5498 5497 5497 5497 5497 5497 5497 5498 5498 5499 5499 5499 5500 5500 5501 5501 5501 5501 5501 5501 5501 5502 5502 5502 5502 5502 5502 5502 5502 5501 5501 5501 5502 5502 5502 5502 5501 5501 5501 5501 5500 5501 5501
5502 5501 5500 5499 5498 5498 5498 5498 5498 5497 5496 5495 5494 5492 5491 5489 5488 5487 5486 5486 5485 5485 5485 5485 5486 5486 5486 5486 5486 5486 5486 5486 5486 5486 5486 5486 5486 5486 5487 5487 5488 5488 5487 5487 5487 5487 5487 5487 5487 5487 5488 5488 5489 5489 5489 5490 5491 5491 5491 5491 5491 5491 5491 5492 5492 5492 5492 5492 5492 5493 5492 5492 5491 5492 5492 5492 5492 5492 5491 5491 5490 5491 5491 5491 5491
5490 5489 5488 5487 5486 5486 5486 5486 5485 5484 5483 5482 5481 5480 5478 5477 5476 5474 5474 5473 5472 5472 5472 5472 5473 5473 5473 5474 5474 5474 5474 5474 5474 5474 5474 5474 5474 5475 5475 5476 5476 5476 5476 5476 5476 5476 5476 5476 5476 5477 5477 5477 5478 5478 5479 5479 5480 5481 5481 5481 5481 5481 5482 5482 5482 5482 5482 5482 5483 5483 5482 5482 5481 5482 5482 5482 5482 5481 5481 5481 5481 5481 5481 5481 5481
5479 5477 5477 5476 5474 5473 5473 5473 5473 5472 5472 5471 5469 5468 5466 5465 5463 5462 5462 5461 5460 5459 5459 5459 5459 5459 5459 5460 5460 5460 5460 5460 5460 5461 5461 5462 5462 5463 5463 5464 5464 5465 5465 5465 5465 5465 5466 5466 5466 5466 5466 5467 5467 5468 5468 5469 5469 5470 5470 5470 5471 5471 5472 5472 5472 5472 5472 5472 5472 5472 5472 5472 5472 5472 5472 5471 5471 5471 5471 5471 5471 5471 5471 5471 5471
5468 5466 5465 5464 5463 5462 5461 5460 5460 5459 5459 5459 5458 5456 5454 5453 5451 5450 5449 5449 5447 5446 5446 5446 5446 5446 5446 5446 5446 5446 5446 5446 5447 5447 5448 5449 5449 5450 5451 5451 5452 5452 5453 5453 5454 5454 5455 5455 5456 5456 5456 5456 5457 5457 5458 5458 5459 5459 5460 5460 5460 5461 5461 5462 5462 5462 5462 5462 5462 5462 5462 5462 5462 5462 5461 5461 5460 5460 5460 5461 5461 5460 5461 5461 5462
5456 5454 5452 5450 5449 5449 5448 5447 5446 5445 5445 5445 5444 5443 5442 5441 5439 5438 5437 5436 5436 5435 5434 5434 5433 5433 5433 5433 5432 5432 5432 5433 5434 5434 5436 5437 5437 5438 5438 5439 5439 5440 5441 5442 5443 5444 5444 5445 5445 5446 5446 5447 5447 5447 5448 5448 5448 5449 5449 5449 5450 5450 5450 5451 5451 5451 5452 5452 5452 5452 5452 5452 5452 5451 5450 5450 5449 5450 5450 5450 5450 5450 5450 5451 5452
5446 5443 5440 5438 5436 5435 5434 5432 5431 5430 5431 5430 5429 5428 5427 5426 5426 5425 5424 5423 5423 5423 5423 5422 5422 5421 5421 5421 5420 5420 5420 5421 5422 5422 5424 5425 5425 5426 5427 5427 5428 5429 5430 5431 5432 5433 5433 5434 5435 5435 5436 5436 5437 5437 5438 5438 5438 5438 5438 5439 5439 5440 5440 5441 5441 5441 5441 5442 5442 5441 5442 5442 5441 5440 5439 5439 5439 5439 5440 5440 5440 5440 5440 5441 5442
5435 5432 5429 5426 5424 5422 5421 5419 5417 5416 5416 5416 5415 5414 5413 5412 5411 5412 5411 5410 5410 5410 5410 5410 5410 5409 5409 5409 5409 5409 5409 5410 5410 5411 5412 5413 5414 5415 5416 5417 5418 5419 5420 5421 5422 5422 5423 5424 5424 5425 5426 5426 5426 5427 5427 5427 5427 5427 5428 5428 5429 5430 5430 5431 5431 5431 5432 5432 5432 5432 5432 5432 5431 5429 5429 5429 5429 5429 5429 5430 5430 5430 5430 5431 5431
5423 5420 5417 5414 5412 5410 5408 5406 5404 5402 5401 5401 5401 5401 5399 5399 5398 5398 5398 5397 5396 5396 5396 5396 5397 5397 5396 5396 5397 5397 5398 5399 5400 5400 5401 5402 5403 5404 5405 5406 5407 5408 5410 5411 5411 5412 5413 5413 5414 5414 5415 5415 5416 5416 5416 5416 5416 5417 5417 5418 5419 5420 5420 5421 5422 5422 5422 5422 5422 5422 5422 5421 5420 5419 5419 5419 5419 5419 5419 5419 5419 5420 5420 5421 5421
5411 5408 5405 5403 5400 5398 5395 5394 5392 5389 5388 5387 5387 5386 5385 5385 5386 5386 5386 5385 5383 5383 5384 5384 5384 5384 5384 5384 5385 5385 5386 5388 5388 5389 5390 5390 5391 5392 5393 5394 5396 5397 5398 5399 5400 5401 5402 5403 5403 5404 5404 5405 5405 5406 5406 5405 5405 5406 5407 5408 5409 5410 5410 5411 5412 5412 5413 5412 5412 5412 5411 5411 5410 5409 5409 5409 5408 5409 5409 5409 5409 5410 5410 5411 5412
5400 5397 5394 5391 5388 5385 5382 5380 5379 5376 5375 5373 5373 5373 5372 5371 5372 5373 5372 5372 5371 5372 5372 5373 5373 5372 5372 5372 5373 5373 5375 5376 5377 5377 5378 5378 5379 5380 5381 5383 5384 5385 5386 5387 5389 5390 5391 5391 5392 5393 5393 5394 5395 5395 5394 5394 5395 5396 5397 5398 5399 5400 5401 5401 5402 5402 5402 5402 5402 5402 5401 5401 5400 5399 5399 5399 5399 5399 5399 5399 5400 5400 5401 5401 5402
5390 5386 5383 5380 5377 5374 5371 5368 5366 5364 5362 5360 5359 5358 5358 5358 5358 5358 5358 5358 5359 5360 5361 5361 5361 5361 5361 5361 5361 5362 5364 5364 5365 5365 5366 5367 5368 5369 5370 5371 5372 5373 5374 5376 5377 5378 5379 5380 5381 5382 5382 5383 5384 5384 5383 5384 5384 5386 5387 5388 5389 5390 5391 5391 5392 5392 5392 5392 5392 5391 5391 5391 5390 5389 5389 5389 5389 5389 5389 5389 5390 5391 5391 5392 5392
5381 5377 5374 5370 5367 5364 5361 5358 5355 5353 5350 5348 5346 5345 5344 5344 5343 5343 5344 5344 5345 5347 5348 5348 5349 5349 5349 5349 5350 5351 5352 5353 5353 5354 5355 5356 5356 5357 5358 5359 5360 5361 5363 5364 5365 5366 5367 5368 5370 5371 5371 5373 5373 5373 5373 5373 5374 5375 5377 5378 5379 5379 5380 5381 5381 5381 5382 5382 5382 5381 5381 5381 5380 5379 5379 5379 5379 5379 5379 5379 5380 5381 5382 5382 5382
5373 5369 5365 5361 5357 5354 5351 5348 5345 5342 5339 5337 5334 5332 5332 5331 5330 5328 5329 5329 5330 5332 5333 5334 5336 5337 5337 5337 5337 5339 5340 5341 5341 5342 5343 5344 5345 5345 5346 5347 5348 5349 5351 5352 5354 5355 5356 5358 5359 5360 5361 5362 5363 5362 5362 5363 5363 5364 5365 5367 5369 5369 5369 5370 5371 5371 5371 5371 5372 5371 5371 5370 5370 5369 5369 5369 5369 5368 5369 5370 5371 5372 5373 5372 5372
5364 5361 5358 5354 5349 5345 5341 5338 5334 5331 5328 5326 5323 5320 5320 5320 5318 5316 5315 5315 5315 5317 5318 5319 5321 5322 5323 5323 5324 5326 5327 5328 5329 5330 5332 5332 5333 5333 5334 5335 5336 5338 5340 5341 5343 5344 5346 5347 5348 5349 5350 5352 5352 5351 5351 5352 5352 5353 5353 5355 5359 5359 5359 5360 5361 5361 5362 5362 5361 5361 5361 5360 5360 5360 5359 5358 5358 5358 5359 5361 5362 5362 5363 5363 5363
5355 5352 5349 5345 5341 5337 5333 5329 5325 5321 5318 5315 5312 5309 5307 5308 5307 5304 5303 5302 5302 5302 5303 5304 5306 5307 5308 5309 5310 5312 5314 5315 5316 5318 5319 5320 5320 5321 5322 5323 5325 5327 5328 5330 5332 5333 5335 5336 5337 5339 5340 5341 5341 5341 5341 5341 5342 5342 5342 5344 5348 5350 5350 5351 5351 5351 5352 5352 5352 5351 5351 5350 5351 5350 5349 5348 5347 5348 5350 5351 5352 5353 5353 5353 5353
5345 5342 5340 5337 5333 5329 5325 5321 5317 5313 5308 5304 5301 5298 5297 5296 5295 5292 5291 5291 5290 5290 5290 5290 5291 5292 5293 5295 5296 5297 5300 5301 5303 5305 5306 5306 5307 5309 5310 5311 5313 5314 5316 5318 5320 5322 5324 5326 5327 5329 5329 5331 5331 5331 5331 5331 5332 5332 5332 5334 5338 5339 5340 5342 5342 5342 5342 5342 5342 5341 5341 5341 5341 5340 5339 5337 5337 5339 5341 5342 5342 5342 5343 5344 5344
5335 5331 5329 5327 5323 5320 5315 5311 5307 5303 5298 5294 5291 5288 5286 5285 5283 5281 5280 5279 5279 5279 5279 5278 5279 5279 5279 5280 5281 5282 5284 5286 5288 5291 5292 5293 5294 5296 5297 5298 5300 5302 5304 5306 5308 5310 5313 5315 5317 5318 5319 5320 5321 5320 5320 5321 5322 5322 5322 5324 5327 5329 5330 5332 5333 5333 5333 5333 5332 5331 5331 5332 5331 5330 5328 5327 5327 5328 5331 5333 5333 5333 5334 5335 5333
5326 5322 5319 5317 5314 5310 5305 5301 5296 5292 5287 5283 5280 5278 5276 5275 5274 5271 5270 5269 5269 5268 5268 5267 5267 5267 5267 5267 5267 5267 5269 5270 5272 5275 5277 5279 5281 5282 5284 5285 5287 5289 5291 5293 5296 5298 5301 5303 5305 5307 5308 5309 5310 5309 5309 5310 5311 5311 5312 5314 5316 5319 5320 5322 5323 5324 5325 5324 5323 5322 5322 5321 5321 5320 5319 5318 5317 5318 5321 5323 5323 5324 5325 5324 5321
5318 5314 5310 5307 5305 5301 5296 5291 5286 5281 5277 5273 5270 5268 5267 5266 5265 5264 5262 5261 5260 5258 5257 5257 5256 5256 5256 5255 5255 5255 5256 5256 5258 5259 5261 5263 5266 5268 5270 5272 5273 5276 5278 5281 5284 5286 5289 5291 5293 5295 5296 5297 5298 5298 5298 5299 5300 5301 5302 5304 5306 5309 5310 5311 5313 5314 5315 5316 5315 5314 5313 5311 5310 5309 5309 5309 5309 5309 5310 5312 5314 5315 5315 5312 5310
5311 5306 5302 5298 5296 5293 5288 5282 5276 5271 5268 5265 5262 5261 5260 5259 5258 5256 5255 5253 5251 5249 5248 5247 5246 5246 5245 5245 5245 5245 5245 5245 5246 5247 5248 5249 5251 5253 5255 5257 5260 5263 5265 5268 5271 5274 5276 5279 5281 5282 5284 5285 5286 5286 5287 5288 5290 5292 5293 5294 5297 5299 5301 5301 5303 5305 5306 5307 5306 5305 5303 5301 5300 5299 5299 5299 5299 5299 5300 5301 5303 5304 5303 5301 5300
5304 5300 5295 5290 5287 5284 5280 5275 5269 5264 5260 5258 5256 5255 5254 5252 5251 5250 5248 5246 5244 5241 5240 5238 5237 5237 5237 5236 5236 5236 5236 5236 5236 5236 5237 5238 5239 5240 5242 5244 5246 5249 5252 5256 5259 5261 5263 5266 5268 5270 5272 5273 5275 5276 5277 5278 5280 5282 5284 5285 5287 5289 5291 5292 5294 5295 5296 5296 5296 5295 5294 5292 5290 5290 5290 5290 5290 5290 5290 5291 5291 5291 5291 5291 5290
5296 5292 5287 5282 5279 5276 5272 5268 5263 5258 5255 5252 5250 5249 5248 5246 5244 5242 5240 5239 5237 5235 5233 5232 5231 5230 5230 5230 5229 5229 5229 5228 5228 5228 5228 5228 5229 5230 5231 5233 5235 5238 5241 5244 5247 5249 5251 5254 5257 5259 5261 5262 5264 5265 5267 5268 5270 5272 5274 5275 5276 5278 5280 5282 5284 5285 5286 5286 5286 5285 5284 5282 5281 5281 5281 5281 5281 5281 5281 5280 5279 5279 5279 5280 5280
5286 5284 5280 5276 5273 5269 5265 5261 5257 5253 5250 5247 5244 5243 5242 5240 5238 5236 5234 5232 5230 5229 5228 5227 5226 5225 5225 5225 5224 5223 5223 5222 5221 5221 5221 5221 5221 5221 5222 5224 5226 5228 5231 5233 5236 5239 5241 5244 5246 5249 5250 5252 5254 5256 5257 5259 5260 5262 5263 5265 5266 5268 5269 5271 5273 5275 5276 5276 5275 5274 5273 5273 5272 5272 5272 5272 5272 5271 5271 5270 5269 5268 5269 5269 5269
5277 5276 5273 5270 5267 5263 5259 5255 5252 5248 5245 5242 5239 5237 5235 5234 5233 5231 5229 5227 5225 5224 5223 5223 5222 5221 5221 5220 5219 5218 5217 5217 5216 5215 5215 5214 5214 5215 5215 5216 5218 5220 5222 5224 5227 5230 5232 5235 5237 5239 5240 5241 5243 5245 5247 5248 5250 5252 5253 5254 5256 5257 5259 5261 5263 5264 5265 5265 5264 5263 5263 5264 5263 5263 5262 5262 5262 5262 5261 5260 5259 5259 5259 5259 5259
5269 5268 5266 5264 5261 5257 5253 5249 5246 5243 5240 5238 5236 5233 5231 5230 5229 5227 5225 5223 5222 5221 5220 5219 5218 5217 5217 5216 5215 5214 5213 5212 5211 5210 5209 5209 5209 5209 5210 5210 5211 5213 5214 5217 5219 5221 5224 5226 5228 5229 5230 5232 5234 5236 5237 5238 5240 5241 5243 5244 5246 5248 5249 5251 5252 5253 5254 5254 5254 5254 5254 5254 5254 5254 5253 5252 5252 5251 5251 5250 5249 5250 5250 5250 5249
5263 5261 5259 5257 5255 5251 5247 5244 5241 5238 5236 5234 5232 5230 5228 5226 5225 5223 5221 5220 5218 5217 5216 5215 5214 5213 5213 5212 5211 5210 5209 5207 5206 5206 5205 5204 5204 5204 5204 5205 5206 5207 5208 5210 5211 5213 5215 5217 5218 5220 5221 5223 5225 5227 5227 5228 5230 5232 5234 5235 5237 5238 5239 5240 5241 5241 5242 5243 5245 5245 5246 5246 5245 5244 5243 5242 5242 5242 5241 5241 5240 5240 5241 5241 5240
5256 5255 5253 5251 5248 5245 5242 5239 5237 5234 5233 5231 5228 5226 5225 5223 5221 5219 5218 5216 5215 5214 5212 5211 5210 5209 5208 5208 5207 5206 5205 5204 5202 5202 5201 5201 5200 5200 5200 5200 5200 5201 5202 5203 5205 5206 5207 5208 5210 5211 5213 5215 5217 5217 5217 5219 5221 5224 5225 5226 5227 5228 5228 5229 5230 5231 5232 5234 5235 5236 5237 5237 5236 5235 5234 5233 5233 5233 5232 5232 5232 5231 5231 5231 5231
5250 5249 5247 5245 5242 5239 5237 5234 5233 5231 5229 5227 5225 5223 5222 5220 5218 5216 5215 5213 5212 5210 5209 5208 5207 5206 5205 5204 5203 5202 5201 5200 5199 5198 5197 5197 5196 5196 5196 5196 5196 5196 5197 5198 5198 5199 5200 5201 5203 5204 5205 5206 5208 5208 5209 5211 5213 5215 5216 5217 5217 5218 5218 5219 5220 5221 5223 5225 5226 5227 5227 5227 5226 5226 5226 5225 5224 5224 5224 5224 5223 5223 5222 5223 5223
5245 5243 5242 5240 5237 5234 5232 5230 5229 5227 5225 5223 5221 5220 5218 5216 5215 5213 5211 5210 5209 5207 5206 5204 5203 5202 5201 5200 5199 5198 5197 5196 5195 5195 5194 5193 5193 5193 5192 5192 5192 5192 5193 5193 5193 5194 5195 5195 5196 5197 5198 5199 5200 5200 5202 5203 5205 5206 5207 5208 5208 5209 5210 5210 5211 5212 5215 5216 5216 5217 5218 5217 5217 5217 5217 5216 5216 5215 5216 5215 5215 5215 5214 5214 5213